Location: Newark
(42.9277°N, 71.8621°W)
Time: 22:18:45
(UTC+00:00)

deb Explorer IX - Visible Passes

Search period start: 25 May 2020 00:00
Search period end: 04 June 2020 00:00
Orbit: 545 x 1101 km, 38.8° (Epoch: 22 May)

Date Brightness Start Highest point End Pass type
(mag) Time Alt. Az. Time Alt. Az. Time Alt. Az.
25 May ? 01:02:53 10° SSW 01:06:51 24° SSE 01:11:19 10° E visible
25 May ? 02:48:01 10° WSW 02:53:11 52° SSE 02:55:16 36° ESE visible
25 May ? 04:34:21 10° W 04:48:43 - ESE 04:36:38 25° WSW visible
25 May ? 06:30:18 23° SSE 06:30:18 23° SSE 06:33:13 10° SE visible
25 May ? 08:11:52 13° SW 08:13:21 13° SW 08:16:35 10° S visible
26 May ? 00:40:27 10° SSW 00:44:16 24° SSE 00:48:33 10° E visible
26 May ? 02:25:35 10° WSW 02:30:34 52° S 02:34:03 23° ESE visible
26 May ? 04:11:53 10° W 04:15:22 38° WSW 04:15:22 38° WSW visible
26 May?06:12:15SE06:12:15SE05:56:42Wvisible
27 May ? 02:03:08 10° WSW 02:07:58 51° SSE 02:12:29 16° E visible
27 May ? 03:49:24 10° W 03:53:47 49° SW 03:53:47 49° SW visible
28 May ? 01:40:42 10° WSW 01:45:23 50° SSE 01:50:47 10° E visible
28 May ? 03:26:56 10° W 03:32:05 54° S 03:32:05 54° S visible
29 May ? 01:18:15 10° WSW 01:22:48 49° S 01:28:07 10° E visible
29 May ? 03:04:29 10° W 03:09:31 53° S 03:10:18 49° SSE visible
29 May ? 04:51:16 10° W 04:51:36 12° W 04:51:36 12° W visible
30 May ? 00:55:49 10° WSW 01:00:14 48° S 01:05:22 10° E visible
30 May ? 02:42:02 10° W 02:46:54 52° S 02:48:30 39° SE visible
30 May ? 04:28:47 10° W 04:29:48 15° WSW 04:29:48 15° WSW visible
31 May ? 02:19:36 10° W 02:24:18 51° S 02:26:41 30° SE visible
31 May ? 04:06:21 10° W 04:07:59 18° WSW 04:07:59 18° WSW visible
01 Jun ? 01:57:09 10° W 02:01:43 49° S 02:04:52 22° ESE visible
01 Jun ? 03:43:55 10° W 03:46:10 21° WSW 03:46:10 21° WSW visible
02 Jun ? 01:34:43 10° W 01:39:09 48° S 01:43:04 16° ESE visible
02 Jun ? 03:21:30 10° W 03:24:22 23° SW 03:24:22 23° SW visible
03 Jun ? 01:12:17 10° W 01:16:35 47° S 01:21:17 11° ESE visible
03 Jun ? 02:59:04 10° WSW 03:02:35 24° SSW 03:02:35 24° SSW visible
